Погода в Воздвиженье

Россия / Ивановская область     57°29′56″N   42°00′57″E
В апреле 2022 года жителям России запретили посещать сайт meteo.paraplan.net по решению Генеральной прокуратуры. Аудитория сайта уменьшилась в 10 раз. Владельцы сайта не видят смысла в поддержке погодного сервера в таких условиях. Сайт будет закрыт в октябре.
темп.,
°C
ветер,
м/с
пор.,
м/с
влажн.,
%
обл.,
%
осадки,
мм/ч
давл.,
гПа
погр.,
м
4 октября, вт
вт400:00+9ююв513820 0.0 1011721
03:00+8юв514840 0.0 1012533
06:00+8юв514855 0.0 1013509
09:00+11юв5147423 0.0 1013695
12:00+14ююв61163100 0.0 10141146
15:00+15ююв6116425 0.0 10141253
18:00+13ююв61273100 0.0 1014881
21:00+12юв51380100 0.1 1013779
5 октября, ср
ср500:00+12юв6138384 0.3 1012842
03:00+11ююв4988100 1.1 1012605
06:00+10ю4987100 1.3 1011604
09:00+10ю4784100 1.6 1012901
12:00+9юз4778100 0.5 10131018
15:00+8ю2685100 0.6 1013681
18:00+8ю2590100 0.4 1013355
21:00+7юз1188100 1.8 101268
6 октября, чт
чт600:00+7сз2493100 1.1 1012298
03:00+6зсз3790100 2.6 1013378
06:00+5зсз269722 0.0 1014188
09:00+7зсз478734 0.0 1015456
12:00+10зсз446935 0.0 10151067
15:00+10з356298 0.1 10151076
18:00+6юз26845 0.0 1016118
21:00+5ююз38905 0.0 1015181
7 октября, пт
пт700:00+6ююз41290100 0.0 1013334
03:00+8юз51294100 0.0 1010616
06:00+10зюз51295100 0.9 1010670
09:00+11зсз6108573 1.0 10111087
12:00+10з51182100 0.1 1013870
15:00+10з61277100 0.1 1013938
18:00+9з6138492 0.9 1014976
21:00+9зсз6148638 1.1 1016946
8 октября, сб
сб800:00+9з5138894 0.0 1018672
03:00+7з4129422 0.0 1019458
06:00+6зюз399740 0.0 1020281
09:00+8зюз399076 0.0 1021353
12:00+11зюз487491 0.0 1020657
15:00+13юз487019 0.0 10191028
18:00+9юз3108969 0.0 1019242
21:00+9юз4138669 0.0 1018434